EZY074 EGHH-BIKF

Flight info

Callsign EZY074
Flight time 2h 39m
Altitude 36000
Route BCN DCT IOM DCT BEN/M076F360 DCT VM DCT KFV
Aircraft A320/M-SDE3FGHIRWY/LB1

Departure

Time 2026-04-28 15:21
Airport Bournemouth Airport (EGHH)

Arrival

Time 2026-04-28 18:01
Airport Keflavik International Airport (BIKF)
Time Latitude Longitude Altitude Speed Heading
2026-04-28 14:49 50.77757 -1.83374 44 ft 0 kts 105°
2026-04-28 15:13 50.77758 -1.83382 71 ft 4 kts 108°
2026-04-28 15:14 50.77764 -1.83420 44 ft 4 kts 105°
2026-04-28 15:14 50.77774 -1.83457 44 ft 4 kts 141°
2026-04-28 15:14 50.77788 -1.83468 39 ft 0 kts 176°
2026-04-28 15:17 50.77778 -1.83467 44 ft 5 kts 176°
2026-04-28 15:17 50.77718 -1.83468 44 ft 10 kts 188°
2026-04-28 15:17 50.77641 -1.83480 44 ft 13 kts 187°
2026-04-28 15:18 50.77580 -1.83554 44 ft 11 kts 251°
2026-04-28 15:18 50.77575 -1.83707 45 ft 14 kts 272°
2026-04-28 15:18 50.77587 -1.83867 45 ft 19 kts 280°
2026-04-28 15:18 50.77615 -1.84070 44 ft 18 kts 284°
2026-04-28 15:19 50.77647 -1.84249 46 ft 17 kts 288°
2026-04-28 15:19 50.77689 -1.84445 46 ft 18 kts 285°
2026-04-28 15:19 50.77713 -1.84629 43 ft 16 kts 279°
2026-04-28 15:19 50.77736 -1.84790 47 ft 14 kts 289°
2026-04-28 15:20 50.77786 -1.84935 47 ft 18 kts 300°
2026-04-28 15:20 50.77839 -1.85078 49 ft 11 kts 324°
2026-04-28 15:20 50.77879 -1.85021 49 ft 10 kts 74°
2026-04-28 15:20 50.77918 -1.84790 48 ft 51 kts 75°
2026-04-28 15:21 50.78071 -1.83882 44 ft 116 kts 75°
2026-04-28 15:21 50.78337 -1.82432 274 ft 145 kts 70°
2026-04-28 15:21 50.78598 -1.80876 979 ft 148 kts 71°
2026-04-28 15:21 50.78858 -1.79271 1530 ft 158 kts 71°
2026-04-28 15:22 50.79402 -1.77685 1827 ft 177 kts 37°
2026-04-28 15:22 50.80663 -1.77208 2120 ft 209 kts 354°
2026-04-28 15:22 50.82064 -1.78341 2486 ft 244 kts 328°
2026-04-28 15:22 50.83358 -1.80201 3131 ft 258 kts 319°
2026-04-28 15:23 50.84608 -1.82301 3894 ft 266 kts 316°
2026-04-28 15:23 50.85876 -1.84497 4611 ft 274 kts 316°
2026-04-28 15:23 50.87192 -1.86742 5295 ft 282 kts 317°
2026-04-28 15:23 50.88559 -1.89014 6166 ft 285 kts 317°
2026-04-28 15:24 50.89937 -1.91268 7019 ft 287 kts 319°
2026-04-28 15:24 50.91344 -1.93538 7781 ft 290 kts 318°
2026-04-28 15:24 50.92748 -1.95788 8534 ft 292 kts 319°
2026-04-28 15:24 50.94193 -1.98093 9221 ft 298 kts 319°
2026-04-28 15:25 50.95659 -2.00428 10003 ft 300 kts 318°
2026-04-28 15:25 50.97149 -2.02801 10542 ft 312 kts 318°
2026-04-28 15:25 50.98737 -2.05323 10727 ft 335 kts 319°
2026-04-28 15:25 51.00422 -2.08011 11048 ft 350 kts 318°
2026-04-28 15:26 51.02149 -2.10786 11658 ft 355 kts 318°
2026-04-28 15:26 51.03893 -2.13594 12326 ft 358 kts 318°
2026-04-28 15:26 51.05653 -2.16429 12994 ft 362 kts 318°
2026-04-28 15:26 51.07425 -2.19281 13648 ft 365 kts 319°
2026-04-28 15:27 51.09216 -2.22165 14255 ft 368 kts 319°
2026-04-28 15:27 51.11024 -2.25078 14816 ft 371 kts 319°
2026-04-28 15:27 51.12847 -2.28014 15369 ft 375 kts 319°
2026-04-28 15:27 51.14690 -2.30981 15933 ft 379 kts 319°
2026-04-28 15:28 51.16552 -2.33983 16497 ft 382 kts 319°
2026-04-28 15:28 51.18430 -2.37017 17029 ft 386 kts 319°
2026-04-28 15:28 51.20322 -2.40080 17597 ft 389 kts 320°
2026-04-28 15:28 51.22223 -2.43164 18157 ft 392 kts 320°
2026-04-28 15:29 51.24142 -2.46286 18673 ft 395 kts 321°
2026-04-28 15:29 51.26072 -2.49432 19140 ft 398 kts 321°
2026-04-28 15:29 51.28012 -2.52595 19631 ft 400 kts 321°
2026-04-28 15:29 51.29960 -2.55773 20121 ft 402 kts 322°
2026-04-28 15:30 51.31894 -2.58929 20573 ft 403 kts 323°
2026-04-28 15:30 51.33858 -2.62135 21052 ft 405 kts 323°
2026-04-28 15:30 51.35805 -2.65321 21507 ft 407 kts 323°
2026-04-28 15:30 51.37787 -2.68572 21962 ft 409 kts 323°
2026-04-28 15:31 51.39771 -2.71835 22410 ft 411 kts 324°
2026-04-28 15:31 51.41773 -2.75130 22838 ft 413 kts 324°
2026-04-28 15:31 51.43782 -2.78437 23270 ft 415 kts 324°
2026-04-28 15:31 51.45805 -2.81766 23741 ft 417 kts 324°
2026-04-28 15:32 51.47834 -2.85106 24123 ft 420 kts 324°
2026-04-28 15:32 51.49185 -2.87337 24349 ft 421 kts 324°
2026-04-28 15:32 51.51920 -2.91867 24818 ft 423 kts 325°
2026-04-28 15:32 51.53971 -2.95269 25103 ft 425 kts 324°
2026-04-28 15:33 51.56033 -2.98697 25422 ft 428 kts 324°
2026-04-28 15:33 51.58107 -3.02153 25733 ft 430 kts 324°
2026-04-28 15:33 51.60191 -3.05624 26041 ft 433 kts 324°
2026-04-28 15:33 51.62288 -3.09119 26352 ft 436 kts 324°
2026-04-28 15:34 51.64397 -3.12637 26637 ft 438 kts 324°
2026-04-28 15:34 51.66518 -3.16181 26923 ft 441 kts 324°
2026-04-28 15:34 51.68653 -3.19752 27205 ft 443 kts 324°
2026-04-28 15:34 51.70844 -3.23223 27480 ft 438 kts 330°
2026-04-28 15:35 51.73233 -3.26070 27784 ft 428 kts 340°
2026-04-28 15:35 51.78527 -3.29932 28283 ft 414 kts 351°
2026-04-28 15:35 51.81200 -3.31527 28556 ft 416 kts 351°
2026-04-28 15:36 51.83922 -3.33162 28843 ft 418 kts 351°
2026-04-28 15:36 51.86651 -3.34815 29116 ft 421 kts 351°
2026-04-28 15:36 51.89398 -3.36493 29418 ft 423 kts 350°
2026-04-28 15:36 51.92160 -3.38188 29669 ft 425 kts 351°
2026-04-28 15:37 51.94930 -3.39888 29922 ft 427 kts 351°
2026-04-28 15:37 51.97719 -3.41600 30178 ft 429 kts 351°
2026-04-28 15:37 52.00511 -3.43315 30367 ft 430 kts 349°
2026-04-28 15:37 52.02374 -3.44461 30529 ft 431 kts 349°
2026-04-28 15:38 52.06134 -3.46776 30843 ft 433 kts 349°
2026-04-28 15:38 52.08939 -3.48503 31167 ft 431 kts 349°
2026-04-28 15:38 52.11747 -3.50231 31478 ft 430 kts 349°
2026-04-28 15:38 52.14546 -3.51955 31775 ft 430 kts 349°
2026-04-28 15:39 52.17339 -3.53679 32059 ft 429 kts 349°
2026-04-28 15:39 52.20127 -3.55407 32339 ft 428 kts 349°
2026-04-28 15:39 52.22909 -3.57134 32632 ft 428 kts 349°
2026-04-28 15:39 52.25689 -3.58863 32898 ft 427 kts 349°
2026-04-28 15:40 52.28435 -3.60569 33213 ft 426 kts 349°
2026-04-28 15:40 52.31207 -3.62290 33512 ft 426 kts 349°
2026-04-28 15:40 52.33970 -3.64005 33817 ft 425 kts 349°
2026-04-28 15:40 52.36732 -3.65725 34110 ft 423 kts 349°
2026-04-28 15:41 52.39478 -3.67442 34391 ft 423 kts 349°
2026-04-28 15:41 52.42226 -3.69161 34632 ft 423 kts 349°
2026-04-28 15:41 52.44939 -3.70858 34834 ft 423 kts 349°
2026-04-28 15:41 52.47684 -3.72573 35012 ft 423 kts 348°
2026-04-28 15:42 52.50438 -3.74302 35207 ft 423 kts 348°
2026-04-28 15:42 52.53185 -3.76034 35425 ft 423 kts 348°
2026-04-28 15:42 52.55928 -3.77763 35624 ft 423 kts 348°
2026-04-28 15:42 52.58681 -3.79494 35820 ft 423 kts 348°
2026-04-28 15:43 52.61428 -3.81222 35991 ft 423 kts 347°
2026-04-28 15:43 52.64179 -3.82955 36169 ft 423 kts 347°
2026-04-28 15:43 52.66932 -3.84690 36338 ft 423 kts 347°
2026-04-28 15:43 52.69685 -3.86431 36393 ft 423 kts 347°
2026-04-28 15:44 52.75171 -3.89922 36383 ft 423 kts 347°
2026-04-28 15:44 52.80660 -3.93422 36391 ft 423 kts 347°
2026-04-28 15:45 52.86135 -3.96921 36394 ft 423 kts 347°
2026-04-28 15:45 52.91621 -4.00424 36403 ft 422 kts 347°
2026-04-28 15:46 52.97104 -4.03940 36368 ft 422 kts 346°
2026-04-28 15:46 53.01660 -4.06871 36372 ft 422 kts 346°
2026-04-28 15:47 53.07144 -4.10405 36386 ft 423 kts 346°
2026-04-28 15:47 53.13520 -4.14516 36400 ft 423 kts 346°
2026-04-28 15:48 53.19001 -4.18081 36371 ft 423 kts 346°
2026-04-28 15:48 53.23594 -4.21081 36384 ft 423 kts 346°
2026-04-28 15:49 53.29075 -4.24647 36396 ft 423 kts 346°
2026-04-28 15:49 53.34554 -4.28222 36403 ft 423 kts 346°
2026-04-28 15:50 53.39997 -4.31794 36413 ft 423 kts 346°
2026-04-28 15:50 53.45509 -4.35431 36429 ft 423 kts 346°
2026-04-28 15:51 53.50951 -4.39019 36435 ft 423 kts 346°
2026-04-28 15:51 53.56428 -4.42625 36436 ft 423 kts 346°
2026-04-28 15:52 53.61902 -4.46258 36434 ft 423 kts 346°
2026-04-28 15:52 53.67375 -4.49890 36412 ft 423 kts 346°
2026-04-28 15:53 53.72849 -4.53533 36422 ft 423 kts 345°
2026-04-28 15:53 53.78330 -4.57205 36427 ft 423 kts 346°
2026-04-28 15:54 53.83806 -4.60864 36429 ft 423 kts 345°
2026-04-28 15:54 53.89281 -4.64534 36428 ft 423 kts 345°
2026-04-28 15:55 53.94729 -4.68194 36402 ft 423 kts 345°
2026-04-28 15:55 54.00207 -4.71906 36432 ft 424 kts 345°
2026-04-28 15:56 54.05678 -4.75634 36411 ft 424 kts 344°
2026-04-28 15:56 54.11121 -4.79372 36421 ft 425 kts 344°
2026-04-28 15:57 54.16585 -4.83200 36419 ft 425 kts 343°
2026-04-28 15:57 54.22053 -4.87046 36425 ft 425 kts 343°
2026-04-28 15:58 54.27526 -4.90891 36438 ft 425 kts 343°
2026-04-28 15:58 54.33005 -4.94726 36442 ft 425 kts 344°
2026-04-28 15:59 54.38485 -4.98574 36447 ft 425 kts 343°
2026-04-28 15:59 54.43957 -5.02431 36430 ft 426 kts 343°
2026-04-28 16:00 54.49403 -5.06294 36439 ft 426 kts 343°
2026-04-28 16:00 54.54882 -5.10188 36450 ft 426 kts 343°
2026-04-28 16:01 54.60361 -5.14094 36453 ft 426 kts 343°
2026-04-28 16:01 54.65834 -5.18012 36445 ft 426 kts 343°
2026-04-28 16:02 54.71319 -5.21948 36454 ft 427 kts 342°
2026-04-28 16:02 54.76802 -5.25899 36468 ft 427 kts 342°
2026-04-28 16:03 54.82288 -5.29852 36470 ft 427 kts 342°
2026-04-28 16:03 54.87737 -5.33780 36475 ft 427 kts 343°
2026-04-28 16:04 54.93220 -5.37740 36469 ft 427 kts 342°
2026-04-28 16:04 54.98702 -5.41730 36474 ft 427 kts 342°
2026-04-28 16:05 55.04152 -5.45727 36472 ft 427 kts 342°
2026-04-28 16:05 55.09625 -5.49740 36468 ft 427 kts 342°
2026-04-28 16:06 55.15108 -5.53763 36446 ft 427 kts 341°
2026-04-28 16:06 55.20590 -5.57801 36456 ft 428 kts 341°
2026-04-28 16:07 55.26074 -5.61841 36464 ft 428 kts 341°
2026-04-28 16:08 55.34304 -5.67930 36458 ft 428 kts 341°
2026-04-28 16:08 55.39786 -5.72013 36451 ft 428 kts 340°
2026-04-28 16:09 55.48007 -5.78159 36456 ft 428 kts 340°
2026-04-28 16:10 55.56234 -5.84328 36471 ft 428 kts 340°
2026-04-28 16:10 55.64433 -5.90505 36461 ft 428 kts 340°
2026-04-28 16:11 55.75399 -5.98820 36463 ft 429 kts 340°
2026-04-28 16:12 55.83632 -6.05085 36468 ft 429 kts 340°
2026-04-28 16:13 55.91830 -6.11343 36477 ft 429 kts 339°
2026-04-28 16:14 56.02803 -6.19811 36489 ft 429 kts 339°
2026-04-28 16:15 56.13781 -6.28263 36491 ft 429 kts 339°
2026-04-28 16:15 56.19242 -6.32497 36484 ft 430 kts 339°
2026-04-28 16:16 56.27462 -6.38940 36489 ft 430 kts 339°
2026-04-28 16:17 56.35679 -6.45397 36494 ft 430 kts 339°
2026-04-28 16:17 56.41159 -6.49698 36486 ft 430 kts 339°
2026-04-28 16:18 56.46603 -6.54001 36489 ft 430 kts 338°
2026-04-28 16:18 56.52076 -6.58326 36470 ft 430 kts 338°
2026-04-28 16:19 56.57555 -6.62691 36472 ft 430 kts 338°
2026-04-28 16:19 56.63027 -6.67057 36475 ft 430 kts 338°
2026-04-28 16:20 56.68502 -6.71439 36480 ft 430 kts 338°
2026-04-28 16:20 56.73949 -6.75797 36481 ft 430 kts 338°
2026-04-28 16:21 56.79421 -6.80209 36492 ft 430 kts 338°
2026-04-28 16:21 56.84887 -6.84643 36495 ft 430 kts 338°
2026-04-28 16:22 56.90347 -6.89068 36501 ft 430 kts 338°
2026-04-28 16:22 56.95814 -6.93496 36488 ft 430 kts 337°
2026-04-28 16:23 57.01289 -6.97949 36492 ft 430 kts 337°
2026-04-28 16:23 57.06759 -7.02439 36497 ft 431 kts 337°
2026-04-28 16:24 57.12227 -7.06939 36503 ft 431 kts 337°
2026-04-28 16:24 57.17662 -7.11415 36498 ft 431 kts 337°
2026-04-28 16:25 57.23130 -7.15923 36490 ft 431 kts 336°
2026-04-28 16:25 57.28597 -7.20444 36495 ft 431 kts 336°
2026-04-28 16:26 57.34057 -7.24998 36493 ft 431 kts 336°
2026-04-28 16:26 57.39520 -7.29557 36489 ft 430 kts 336°
2026-04-28 16:27 57.44982 -7.34130 36487 ft 431 kts 335°
2026-04-28 16:27 57.49997 -7.40114 36477 ft 430 kts 317°
2026-04-28 16:28 57.52223 -7.43842 36474 ft 430 kts 317°
2026-04-28 16:28 57.56676 -7.51282 36475 ft 431 kts 318°
2026-04-28 16:29 57.63383 -7.62442 36475 ft 431 kts 318°
2026-04-28 16:30 57.70081 -7.73668 36484 ft 431 kts 317°
2026-04-28 16:30 57.74516 -7.81155 36483 ft 432 kts 317°
2026-04-28 16:31 57.78947 -7.88632 36481 ft 432 kts 317°
2026-04-28 16:31 57.83409 -7.96188 36478 ft 432 kts 317°
2026-04-28 16:32 57.87864 -8.03765 36474 ft 433 kts 317°
2026-04-28 16:32 57.94549 -8.15185 36476 ft 433 kts 316°
2026-04-28 16:33 57.97531 -8.20294 36475 ft 433 kts 316°
2026-04-28 16:33 58.03467 -8.30453 36472 ft 433 kts 316°
2026-04-28 16:34 58.07911 -8.38138 36470 ft 433 kts 316°
2026-04-28 16:34 58.12349 -8.45834 36474 ft 433 kts 316°
2026-04-28 16:35 58.16792 -8.53565 36478 ft 434 kts 316°
2026-04-28 16:35 58.21221 -8.61314 36482 ft 434 kts 315°
2026-04-28 16:36 58.25652 -8.69086 36487 ft 434 kts 315°
2026-04-28 16:36 58.30083 -8.76866 36471 ft 434 kts 315°
2026-04-28 16:37 58.34477 -8.84634 36470 ft 434 kts 314°
2026-04-28 16:38 58.41118 -8.96402 36468 ft 435 kts 314°
2026-04-28 16:38 58.45538 -9.04280 36467 ft 434 kts 314°
2026-04-28 16:39 58.49947 -9.12174 36461 ft 434 kts 314°
2026-04-28 16:39 58.54352 -9.20076 36460 ft 434 kts 314°
2026-04-28 16:40 58.58753 -9.28003 36459 ft 434 kts 314°
2026-04-28 16:40 58.62404 -9.34605 36455 ft 434 kts 314°
2026-04-28 16:41 58.66767 -9.42515 36455 ft 434 kts 314°
2026-04-28 16:41 58.71159 -9.50504 36461 ft 435 kts 313°
2026-04-28 16:42 58.75550 -9.58531 36451 ft 436 kts 313°
2026-04-28 16:42 58.79946 -9.66590 36442 ft 436 kts 313°
2026-04-28 16:43 58.84316 -9.74614 36442 ft 437 kts 313°
2026-04-28 16:43 58.88742 -9.82781 36444 ft 437 kts 313°
2026-04-28 16:44 58.93101 -9.90863 36438 ft 437 kts 313°
2026-04-28 16:44 58.97476 -9.99020 36447 ft 437 kts 313°
2026-04-28 16:45 59.01854 -10.07178 36443 ft 436 kts 313°
2026-04-28 16:45 59.06223 -10.15350 36441 ft 436 kts 312°
2026-04-28 16:46 59.10572 -10.23544 36432 ft 436 kts 312°
2026-04-28 16:46 59.14922 -10.31761 36438 ft 436 kts 312°
2026-04-28 16:47 59.19269 -10.39990 36440 ft 435 kts 312°
2026-04-28 16:47 59.23597 -10.48226 36435 ft 434 kts 312°
2026-04-28 16:48 59.27917 -10.56478 36430 ft 434 kts 312°
2026-04-28 16:48 59.32229 -10.64731 36415 ft 433 kts 312°
2026-04-28 16:49 59.36534 -10.72999 36410 ft 433 kts 312°
2026-04-28 16:49 59.40796 -10.81229 36403 ft 433 kts 311°
2026-04-28 16:50 59.45078 -10.89532 36416 ft 433 kts 311°
2026-04-28 16:50 59.49351 -10.97861 36400 ft 432 kts 311°
2026-04-28 16:51 59.53604 -11.06195 36394 ft 432 kts 311°
2026-04-28 16:51 59.57862 -11.14538 36396 ft 432 kts 311°
2026-04-28 16:52 59.62120 -11.22902 36379 ft 432 kts 311°
2026-04-28 16:52 59.66374 -11.31296 36374 ft 432 kts 311°
2026-04-28 16:53 59.70621 -11.39713 36375 ft 432 kts 311°
2026-04-28 16:53 59.74862 -11.48145 36371 ft 432 kts 311°
2026-04-28 16:54 59.79099 -11.56597 36354 ft 432 kts 310°
2026-04-28 16:54 59.83334 -11.65085 36362 ft 432 kts 310°
2026-04-28 16:55 59.87530 -11.73532 36352 ft 432 kts 310°
2026-04-28 16:55 59.91743 -11.82063 36349 ft 432 kts 310°
2026-04-28 16:56 59.95945 -11.90610 36365 ft 432 kts 310°
2026-04-28 16:56 60.00153 -11.99176 36355 ft 432 kts 310°
2026-04-28 16:57 60.04352 -12.07755 36361 ft 432 kts 309°
2026-04-28 16:57 60.08543 -12.16353 36348 ft 431 kts 309°
2026-04-28 16:58 60.12726 -12.24977 36343 ft 431 kts 309°
2026-04-28 16:58 60.16908 -12.33620 36344 ft 431 kts 309°
2026-04-28 16:59 60.21077 -12.42271 36343 ft 431 kts 309°
2026-04-28 16:59 60.25237 -12.50937 36346 ft 430 kts 309°
2026-04-28 17:00 60.29387 -12.59617 36331 ft 430 kts 308°
2026-04-28 17:00 60.33523 -12.68308 36328 ft 429 kts 308°
2026-04-28 17:01 60.37648 -12.77015 36311 ft 429 kts 308°
2026-04-28 17:01 60.41776 -12.85759 36308 ft 430 kts 308°
2026-04-28 17:02 60.45873 -12.94462 36340 ft 429 kts 307°
2026-04-28 17:02 60.49984 -13.03240 36320 ft 430 kts 307°
2026-04-28 17:03 60.56151 -13.16453 36303 ft 429 kts 307°
2026-04-28 17:03 60.60250 -13.25283 36293 ft 429 kts 307°
2026-04-28 17:04 60.66385 -13.38570 36291 ft 429 kts 307°
2026-04-28 17:05 60.72499 -13.51911 36282 ft 429 kts 306°
2026-04-28 17:06 60.78599 -13.65270 36262 ft 429 kts 306°
2026-04-28 17:06 60.84682 -13.78689 36256 ft 428 kts 306°
2026-04-28 17:07 60.88726 -13.87661 36266 ft 428 kts 305°
2026-04-28 17:07 60.92778 -13.96655 36245 ft 429 kts 305°
2026-04-28 17:08 60.96794 -14.05616 36226 ft 428 kts 305°
2026-04-28 17:08 61.00822 -14.14665 36221 ft 429 kts 305°
2026-04-28 17:09 61.04852 -14.23737 36219 ft 429 kts 305°
2026-04-28 17:09 61.08878 -14.32828 36219 ft 429 kts 304°
2026-04-28 17:10 61.12898 -14.41943 36220 ft 429 kts 304°
2026-04-28 17:10 61.16901 -14.51092 36243 ft 428 kts 304°
2026-04-28 17:11 61.20886 -14.60230 36237 ft 428 kts 304°
2026-04-28 17:11 61.24875 -14.69390 36223 ft 427 kts 304°
2026-04-28 17:12 61.28847 -14.78561 36211 ft 427 kts 303°
2026-04-28 17:12 61.32818 -14.87752 36208 ft 427 kts 303°
2026-04-28 17:13 61.36781 -14.96952 36198 ft 427 kts 303°
2026-04-28 17:13 61.40729 -15.06191 36224 ft 427 kts 303°
2026-04-28 17:14 61.44652 -15.15400 36199 ft 427 kts 303°
2026-04-28 17:14 61.48596 -15.24683 36190 ft 427 kts 303°
2026-04-28 17:15 61.52531 -15.33981 36183 ft 427 kts 302°
2026-04-28 17:15 61.56459 -15.43315 36165 ft 427 kts 302°
2026-04-28 17:16 61.60367 -15.52630 36166 ft 427 kts 302°
2026-04-28 17:16 61.64281 -15.62006 36179 ft 426 kts 302°
2026-04-28 17:17 61.68189 -15.71398 36156 ft 426 kts 302°
2026-04-28 17:17 61.72087 -15.80819 36147 ft 426 kts 301°
2026-04-28 17:18 61.75980 -15.90293 36141 ft 428 kts 301°
2026-04-28 17:18 61.79880 -15.99800 36123 ft 429 kts 301°
2026-04-28 17:19 61.83785 -16.09339 36110 ft 429 kts 301°
2026-04-28 17:19 61.87697 -16.18914 36155 ft 430 kts 301°
2026-04-28 17:20 61.90857 -16.26697 36127 ft 430 kts 300°
2026-04-28 17:20 61.95377 -16.37896 36105 ft 430 kts 300°
2026-04-28 17:21 61.99251 -16.47552 36101 ft 430 kts 300°
2026-04-28 17:22 62.05062 -16.62106 36091 ft 430 kts 300°
2026-04-28 17:22 62.08938 -16.71847 36085 ft 430 kts 300°
2026-04-28 17:23 62.14742 -16.86487 36103 ft 430 kts 299°
2026-04-28 17:23 62.18603 -16.96299 36074 ft 431 kts 298°
2026-04-28 17:24 62.22518 -17.06072 36054 ft 433 kts 300°
2026-04-28 17:24 62.26515 -17.15773 36046 ft 435 kts 300°
2026-04-28 17:25 62.32512 -17.30398 36041 ft 435 kts 300°
2026-04-28 17:26 62.36472 -17.40216 36089 ft 435 kts 299°
2026-04-28 17:26 62.40422 -17.50082 36056 ft 435 kts 299°
2026-04-28 17:27 62.44381 -17.59994 36037 ft 436 kts 299°
2026-04-28 17:27 62.48333 -17.69917 36035 ft 436 kts 299°
2026-04-28 17:28 62.52282 -17.79881 36024 ft 436 kts 298°
2026-04-28 17:28 62.58158 -17.94812 36022 ft 436 kts 298°
2026-04-28 17:29 62.62085 -18.04835 36000 ft 435 kts 298°
2026-04-28 17:30 62.67952 -18.19860 35985 ft 435 kts 298°
2026-04-28 17:30 62.73805 -18.34996 35983 ft 436 kts 297°
2026-04-28 17:31 62.79645 -18.50173 35982 ft 436 kts 297°
2026-04-28 17:32 62.85478 -18.65424 35980 ft 434 kts 297°
2026-04-28 17:32 62.89338 -18.75577 35966 ft 433 kts 297°
2026-04-28 17:33 62.93181 -18.85760 35969 ft 433 kts 297°
2026-04-28 17:33 62.95721 -18.92518 35962 ft 434 kts 297°
2026-04-28 17:34 63.00860 -19.06209 35955 ft 434 kts 297°
2026-04-28 17:34 63.04666 -19.16403 35987 ft 434 kts 297°
2026-04-28 17:35 63.08491 -19.26696 35765 ft 435 kts 297°
2026-04-28 17:35 63.10409 -19.31888 35123 ft 436 kts 296°
2026-04-28 17:35 63.12324 -19.37067 34601 ft 433 kts 296°
2026-04-28 17:36 63.14221 -19.42200 34091 ft 430 kts 295°
2026-04-28 17:36 63.16095 -19.47288 33519 ft 427 kts 295°
2026-04-28 17:36 63.17957 -19.52355 33004 ft 422 kts 295°
2026-04-28 17:36 63.19799 -19.57382 32496 ft 418 kts 294°
2026-04-28 17:37 63.21617 -19.62369 31999 ft 414 kts 294°
2026-04-28 17:37 63.23417 -19.67318 31513 ft 411 kts 294°
2026-04-28 17:37 63.25197 -19.72223 31017 ft 407 kts 293°
2026-04-28 17:37 63.26965 -19.77098 30537 ft 403 kts 293°
2026-04-28 17:38 63.28715 -19.81938 30057 ft 400 kts 292°
2026-04-28 17:38 63.30443 -19.86729 29541 ft 395 kts 292°
2026-04-28 17:38 63.32153 -19.91468 29097 ft 390 kts 292°
2026-04-28 17:38 63.33837 -19.96144 28649 ft 384 kts 292°
2026-04-28 17:39 63.35492 -20.00763 28226 ft 379 kts 292°
2026-04-28 17:39 63.37118 -20.05325 27805 ft 373 kts 291°
2026-04-28 17:39 63.40301 -20.14296 26981 ft 365 kts 291°
2026-04-28 17:40 63.41867 -20.18711 26578 ft 361 kts 291°
2026-04-28 17:40 63.43418 -20.23079 26169 ft 357 kts 291°
2026-04-28 17:40 63.44951 -20.27400 25770 ft 354 kts 291°
2026-04-28 17:40 63.45959 -20.30250 25490 ft 352 kts 291°
2026-04-28 17:41 63.47472 -20.34542 25078 ft 351 kts 290°
2026-04-28 17:41 63.49454 -20.40187 24517 ft 348 kts 291°
2026-04-28 17:41 63.50945 -20.44443 24082 ft 346 kts 291°
2026-04-28 17:41 63.52424 -20.48682 23694 ft 346 kts 290°
2026-04-28 17:42 63.53910 -20.52945 23168 ft 347 kts 290°
2026-04-28 17:42 63.54914 -20.55818 22866 ft 345 kts 290°
2026-04-28 17:42 63.56194 -20.60172 22455 ft 324 kts 281°
2026-04-28 17:42 63.57195 -20.64622 22060 ft 317 kts 279°
2026-04-28 17:43 63.58176 -20.69027 21668 ft 314 kts 279°
2026-04-28 17:43 63.59134 -20.73333 21294 ft 311 kts 279°
2026-04-28 17:43 63.60091 -20.77658 20923 ft 308 kts 279°
2026-04-28 17:43 63.61040 -20.81947 20551 ft 306 kts 279°
2026-04-28 17:44 63.61982 -20.86216 20188 ft 304 kts 279°
2026-04-28 17:44 63.62916 -20.90463 19825 ft 302 kts 279°
2026-04-28 17:44 63.63837 -20.94685 19467 ft 300 kts 280°
2026-04-28 17:44 63.64756 -20.98899 19108 ft 299 kts 280°
2026-04-28 17:45 63.65675 -21.03100 18749 ft 299 kts 280°
2026-04-28 17:45 63.66642 -21.07278 18370 ft 307 kts 287°
2026-04-28 17:45 63.67942 -21.11228 17948 ft 318 kts 294°
2026-04-28 17:45 63.69329 -21.15122 17521 ft 319 kts 294°
2026-04-28 17:46 63.70719 -21.19023 17124 ft 320 kts 294°
2026-04-28 17:46 63.72101 -21.22909 16719 ft 320 kts 294°
2026-04-28 17:46 63.73494 -21.26847 16370 ft 321 kts 294°
2026-04-28 17:46 63.74891 -21.30809 15932 ft 324 kts 294°
2026-04-28 17:47 63.76299 -21.34806 15528 ft 325 kts 295°
2026-04-28 17:47 63.77706 -21.38798 15123 ft 325 kts 295°
2026-04-28 17:47 63.79117 -21.42802 14730 ft 325 kts 295°
2026-04-28 17:47 63.80049 -21.45454 14463 ft 325 kts 295°
2026-04-28 17:48 63.81929 -21.50826 13924 ft 325 kts 296°
2026-04-28 17:48 63.83330 -21.54840 13512 ft 325 kts 296°
2026-04-28 17:48 63.84725 -21.58834 13210 ft 319 kts 296°
2026-04-28 17:48 63.86090 -21.62717 13087 ft 310 kts 296°
2026-04-28 17:49 63.87416 -21.66464 12929 ft 297 kts 295°
2026-04-28 17:49 63.88672 -21.70003 12793 ft 280 kts 295°
2026-04-28 17:49 63.89858 -21.73364 12579 ft 267 kts 294°
2026-04-28 17:49 63.91001 -21.76653 12082 ft 266 kts 294°
2026-04-28 17:50 63.92147 -21.79994 11473 ft 269 kts 294°
2026-04-28 17:50 63.93293 -21.83364 11031 ft 270 kts 294°
2026-04-28 17:50 63.94431 -21.86710 10662 ft 266 kts 294°
2026-04-28 17:50 63.95564 -21.90039 10191 ft 265 kts 295°
2026-04-28 17:51 63.96690 -21.93354 9803 ft 265 kts 295°
2026-04-28 17:51 63.97804 -21.96638 9395 ft 264 kts 295°
2026-04-28 17:51 63.98925 -21.99945 9072 ft 263 kts 296°
2026-04-28 17:51 64.00030 -22.03198 8726 ft 262 kts 296°
2026-04-28 17:52 64.01145 -22.06482 8359 ft 261 kts 296°
2026-04-28 17:52 64.02260 -22.09760 7999 ft 260 kts 296°
2026-04-28 17:52 64.04476 -22.16263 7260 ft 259 kts 297°
2026-04-28 17:53 64.05577 -22.19508 6885 ft 258 kts 297°
2026-04-28 17:53 64.06670 -22.22746 6507 ft 257 kts 297°
2026-04-28 17:53 64.07762 -22.25984 6116 ft 257 kts 297°
2026-04-28 17:53 64.08844 -22.29175 5688 ft 251 kts 300°
2026-04-28 17:54 64.10098 -22.32006 5180 ft 256 kts 314°
2026-04-28 17:54 64.11524 -22.34443 4587 ft 256 kts 315°
2026-04-28 17:54 64.12939 -22.36857 4102 ft 249 kts 316°
2026-04-28 17:54 64.14254 -22.39157 3972 ft 225 kts 307°
2026-04-28 17:55 64.15125 -22.41824 3820 ft 198 kts 285°
2026-04-28 17:55 64.15503 -22.44681 3688 ft 179 kts 267°
2026-04-28 17:55 64.15483 -22.47393 3582 ft 163 kts 251°
2026-04-28 17:55 64.15156 -22.49841 3494 ft 161 kts 242°
2026-04-28 17:56 64.14765 -22.52253 3461 ft 163 kts 243°
2026-04-28 17:56 64.14379 -22.54689 3389 ft 162 kts 245°
2026-04-28 17:56 64.13986 -22.57084 3181 ft 162 kts 238°
2026-04-28 17:56 64.13309 -22.59087 2982 ft 159 kts 217°
2026-04-28 17:57 64.12348 -22.60281 2809 ft 159 kts 197°
2026-04-28 17:57 64.11236 -22.60540 2618 ft 164 kts 184°
2026-04-28 17:57 64.10114 -22.60536 2419 ft 157 kts 184°
2026-04-28 17:57 64.09035 -22.60534 2194 ft 150 kts 185°
2026-04-28 17:58 64.08023 -22.60533 1987 ft 140 kts 185°
2026-04-28 17:58 64.07080 -22.60534 1815 ft 135 kts 186°
2026-04-28 17:58 64.06155 -22.60535 1619 ft 132 kts 185°
2026-04-28 17:58 64.05263 -22.60535 1432 ft 125 kts 186°
2026-04-28 17:59 64.04407 -22.60537 1260 ft 121 kts 186°
2026-04-28 17:59 64.03570 -22.60538 1091 ft 119 kts 187°
2026-04-28 17:59 64.02746 -22.60539 929 ft 118 kts 187°
2026-04-28 17:59 64.01922 -22.60541 755 ft 119 kts 187°
2026-04-28 18:00 64.01080 -22.60542 585 ft 121 kts 186°
2026-04-28 18:00 64.00249 -22.60542 426 ft 118 kts 187°
2026-04-28 18:00 63.99427 -22.60545 271 ft 118 kts 187°
2026-04-28 18:00 63.98622 -22.60563 155 ft 106 kts 182°
2026-04-28 18:01 63.98156 -22.60556 150 ft 42 kts 182°
2026-04-28 18:01 63.97904 -22.60563 147 ft 31 kts 181°
2026-04-28 18:01 63.97715 -22.60561 148 ft 24 kts 180°
2026-04-28 18:01 63.97567 -22.60551 148 ft 19 kts 179°
2026-04-28 18:02 63.97444 -22.60587 147 ft 17 kts 218°
2026-04-28 18:02 63.97449 -22.60831 145 ft 16 kts 284°
2026-04-28 18:02 63.97526 -22.60945 146 ft 13 kts 359°
2026-04-28 18:02 63.97602 -22.60946 146 ft 9 kts 359°
2026-04-28 18:03 63.97682 -22.60947 147 ft 20 kts
2026-04-28 18:03 63.97811 -22.60947 148 ft 17 kts 359°
2026-04-28 18:03 63.97911 -22.60949 148 ft 13 kts 359°
2026-04-28 18:03 63.98033 -22.60948 149 ft 24 kts 360°
2026-04-28 18:04 63.98213 -22.60945 150 ft 24 kts
2026-04-28 18:04 63.98362 -22.60935 151 ft 19 kts
2026-04-28 18:04 63.98501 -22.60942 151 ft 19 kts 359°
2026-04-28 18:04 63.98612 -22.60937 153 ft 13 kts
2026-04-28 18:05 63.98693 -22.60942 155 ft 15 kts 358°
2026-04-28 18:05 63.98793 -22.60947 157 ft 26 kts 359°
2026-04-28 18:05 63.98993 -22.60946 161 ft 18 kts 359°
2026-04-28 18:05 63.99096 -22.60942 163 ft 13 kts
2026-04-28 18:06 63.99172 -22.61053 164 ft 18 kts 277°
2026-04-28 18:06 63.99171 -22.61330 163 ft 17 kts 270°
2026-04-28 18:06 63.99172 -22.61589 162 ft 16 kts 270°
2026-04-28 18:06 63.99172 -22.61851 161 ft 16 kts 270°
2026-04-28 18:07 63.99171 -22.62093 161 ft 15 kts 270°
2026-04-28 18:07 63.99172 -22.62348 160 ft 15 kts 270°
2026-04-28 18:07 63.99171 -22.62571 160 ft 13 kts 269°
2026-04-28 18:07 63.99216 -22.62674 161 ft 9 kts 345°
2026-04-28 18:08 63.99280 -22.62747 161 ft 9 kts 345°
2026-04-28 18:08 63.99341 -22.62757 161 ft 8 kts
2026-04-28 18:08 63.99388 -22.62732 161 ft 8 kts 21°
2026-04-28 18:08 63.99408 -22.62650 161 ft 4 kts 108°
2026-04-28 18:09 63.99394 -22.62611 161 ft 5 kts 126°
2026-04-28 18:09 63.99379 -22.62561 161 ft 3 kts 125°
2026-04-28 18:09 63.99374 -22.62544 161 ft 0 kts 125°